When you browse on this site, cookies collect data to enhance your experience and personalize the content and advertising you see.
Visit our Privacy Policy to learn more. By continuing to use the site, you agree to this use of cookies and data.
  • In Hungary
  • List of Countries
  • For 7 days
  • Water Temperature
  • Satellite Maps
  • Weather Map
  • News
  • Weather Widgets
  • user-avatar
    Login

    Hourly Weather Elbasan

    Today, 26 April, Friday

    Time Temperature Precipitation Wind Pressure Humidity
    00:00 +16°C° 0 mm 1 mps 739 mmHg 78%
    01:00 +16°C° 0 mm 1 mps 738 mmHg 76%
    02:00 +16°C° 0 mm 1 mps 738 mmHg 74%
    03:00 +16°C° 0 mm 1 mps 738 mmHg 72%
    04:00 +16°C° 0 mm 1 mps 738 mmHg 70%
    05:00 +18°C° 0 mm 1 mps 738 mmHg 66%
    06:00 +20°C° 0 mm 1 mps 738 mmHg 61%
    07:00 +21°C° 0 mm 1 mps 738 mmHg 57%
    08:00 +23°C° 0 mm 1 mps 738 mmHg 51%
    09:00 +25°C° 0 mm 1 mps 738 mmHg 44%
    10:00 +27°C° 0 mm 1 mps 738 mmHg 38%
    11:00 +28°C° 0 mm 2 mps 738 mmHg 38%
    12:00 +28°C° 0 mm 2 mps 738 mmHg 37%
    13:00 +29°C° 0 mm 2 mps 738 mmHg 37%
    14:00 +28°C° 0 mm 2 mps 737 mmHg 41%
    15:00 +27°C° 0 mm 2 mps 737 mmHg 45%
    16:00 +27°C° 0 mm 2 mps 736 mmHg 49%
    17:00 +24°C° 0 mm 2 mps 736 mmHg 59%
    18:00 +22°C° 0 mm 1 mps 736 mmHg 68%
    19:00 +20°C° 0 mm 1 mps 736 mmHg 77%
    20:00 +18°C° 0 mm 0 mps 736 mmHg 79%
    21:00 +17°C° 0 mm 0 mps 736 mmHg 81%
    22:00 +17°C° 0 mm 0 mps 736 mmHg 82%
    23:00 +19°C° 0 mm 1 mps 736 mmHg 82%

    Tomorrow, 27 April, Saturday

    Time Temperature Precipitation Wind Pressure Humidity
    00:00 +18°C° 0 mm 1 mps 736 mmHg 82%
    01:00 +18°C° 0 mm 1 mps 736 mmHg 81%
    02:00 +18°C° 0 mm 1 mps 735 mmHg 80%
    03:00 +18°C° 0 mm 1 mps 735 mmHg 78%
    04:00 +18°C° 0 mm 1 mps 735 mmHg 77%
    05:00 +19°C° 0 mm 1 mps 735 mmHg 73%
    06:00 +19°C° 0 mm 1 mps 735 mmHg 70%
    07:00 +20°C° 0 mm 1 mps 735 mmHg 66%
    08:00 +20°C° 0 mm 2 mps 735 mmHg 63%
    09:00 +21°C° 0 mm 2 mps 735 mmHg 60%
    10:00 +21°C° 0 mm 3 mps 735 mmHg 57%
    11:00 +21°C° 0.2 mm 3 mps 735 mmHg 60%
    12:00 +21°C° 0.2 mm 3 mps 734 mmHg 62%
    13:00 +21°C° 0.2 mm 3 mps 734 mmHg 65%
    14:00 +20°C° 0.3 mm 3 mps 734 mmHg 63%
    15:00 +20°C° 0.3 mm 4 mps 734 mmHg 60%
    16:00 +20°C° 0.3 mm 4 mps 733 mmHg 58%
    17:00 +18°C° 0 mm 3 mps 734 mmHg 64%
    18:00 +16°C° 0 mm 2 mps 734 mmHg 71%
    19:00 +14°C° 0 mm 1 mps 734 mmHg 77%
    20:00 +14°C° 0 mm 1 mps 734 mmHg 78%
    21:00 +13°C° 0 mm 1 mps 735 mmHg 79%
    22:00 +13°C° 0 mm 1 mps 735 mmHg 80%
    23:00 +11°C° 0 mm 0 mps 735 mmHg 81%

    Day after tomorrow, 28 April, Sunday

    Time Temperature Precipitation Wind Pressure Humidity
    00:00 +11°C° 0 mm 0 mps 735 mmHg 81%
    01:00 +11°C° 0 mm 0 mps 735 mmHg 81%
    02:00 +10°C° 0 mm 0 mps 735 mmHg 82%
    03:00 +10°C° 0 mm 0 mps 735 mmHg 82%
    04:00 +10°C° 0 mm 0 mps 734 mmHg 83%
    05:00 +12°C° 0 mm 1 mps 735 mmHg 79%
    06:00 +13°C° 0 mm 1 mps 735 mmHg 75%
    07:00 +14°C° 0 mm 1 mps 735 mmHg 71%
    08:00 +16°C° 0 mm 1 mps 735 mmHg 63%
    09:00 +17°C° 0 mm 2 mps 735 mmHg 56%
    10:00 +18°C° 0 mm 2 mps 735 mmHg 48%
    11:00 +19°C° 0 mm 3 mps 734 mmHg 48%
    12:00 +19°C° 0 mm 3 mps 734 mmHg 48%
    13:00 +20°C° 0 mm 3 mps 734 mmHg 48%
    14:00 +19°C° 0 mm 3 mps 734 mmHg 52%
    15:00 +19°C° 0 mm 3 mps 733 mmHg 56%
    16:00 +18°C° 0 mm 3 mps 733 mmHg 60%
    17:00 +17°C° 0 mm 2 mps 733 mmHg 68%
    18:00 +15°C° 0 mm 1 mps 733 mmHg 77%
    19:00 +13°C° 0 mm 1 mps 733 mmHg 85%
    20:00 +13°C° 0 mm 1 mps 733 mmHg 86%
    21:00 +12°C° 0 mm 1 mps 734 mmHg 87%
    22:00 +12°C° 0 mm 1 mps 734 mmHg 88%
    23:00 +11°C° 0 mm 1 mps 734 mmHg 86%

    29 April, Monday

    Time Temperature Precipitation Wind Pressure Humidity
    00:00 +11°C° 0 mm 1 mps 734 mmHg 83%
    01:00 +11°C° 0 mm 1 mps 734 mmHg 81%
    02:00 +11°C° 0 mm 1 mps 733 mmHg 77%
    03:00 +10°C° 0 mm 1 mps 733 mmHg 74%
    04:00 +10°C° 0 mm 1 mps 733 mmHg 71%
    05:00 +12°C° 0 mm 1 mps 733 mmHg 64%
    06:00 +13°C° 0 mm 1 mps 733 mmHg 58%
    07:00 +15°C° 0 mm 1 mps 733 mmHg 51%
    08:00 +16°C° 0 mm 1 mps 734 mmHg 46%
    09:00 +19°C° 0 mm 1 mps 734 mmHg 41%
    10:00 +20°C° 0 mm 1 mps 734 mmHg 37%
    11:00 +20°C° 0 mm 2 mps 733 mmHg 38%
    12:00 +20°C° 0 mm 3 mps 733 mmHg 40%
    13:00 +21°C° 0 mm 3 mps 733 mmHg 42%
    14:00 +20°C° 0 mm 3 mps 733 mmHg 46%
    15:00 +19°C° 0 mm 3 mps 732 mmHg 51%
    16:00 +19°C° 0 mm 4 mps 732 mmHg 56%
    17:00 +17°C° 0 mm 3 mps 732 mmHg 65%
    18:00 +15°C° 0 mm 2 mps 732 mmHg 75%
    19:00 +13°C° 0 mm 1 mps 732 mmHg 84%
    20:00 +13°C° 0 mm 1 mps 733 mmHg 85%
    21:00 +13°C° 0 mm 1 mps 733 mmHg 86%
    22:00 +11°C° 0 mm 0 mps 733 mmHg 86%
    23:00 +11°C° 0 mm 0 mps 733 mmHg 85%

    30 April, Tuesday

    Time Temperature Precipitation Wind Pressure Humidity
    00:00 +11°C° 0 mm 0 mps 733 mmHg 84%
    01:00 +10°C° 0 mm 0 mps 733 mmHg 83%
    02:00 +10°C° 0 mm 0 mps 733 mmHg 82%
    03:00 +10°C° 0 mm 0 mps 733 mmHg 81%
    04:00 +10°C° 0 mm 0 mps 732 mmHg 80%
    05:00 +11°C° 0 mm 0 mps 732 mmHg 77%
    06:00 +12°C° 0 mm 0 mps 732 mmHg 75%
    07:00 +13°C° 0 mm 0 mps 732 mmHg 72%
    08:00 +15°C° 0 mm 1 mps 732 mmHg 68%
    09:00 +16°C° 0 mm 2 mps 732 mmHg 64%
    10:00 +17°C° 0 mm 2 mps 732 mmHg 59%
    11:00 +18°C° 0.3 mm 3 mps 732 mmHg 61%
    12:00 +18°C° 0.3 mm 3 mps 731 mmHg 63%
    13:00 +18°C° 0.3 mm 4 mps 731 mmHg 65%
    14:00 +17°C° 0.7 mm 4 mps 731 mmHg 70%
    15:00 +15°C° 0.7 mm 4 mps 731 mmHg 75%
    16:00 +16°C° 0.7 mm 3 mps 730 mmHg 79%
    17:00 +14°C° 0.3 mm 3 mps 730 mmHg 84%
    18:00 +14°C° 0.3 mm 2 mps 731 mmHg 88%
    19:00 +13°C° 0.3 mm 1 mps 731 mmHg 93%
    20:00 +12°C° 0.4 mm 1 mps 731 mmHg 93%
    21:00 +12°C° 0.4 mm 1 mps 731 mmHg 94%
    22:00 +12°C° 0.4 mm 1 mps 732 mmHg 94%
    23:00 +12°C° 0.1 mm 1 mps 732 mmHg 94%

    1 May, Wednesday

    Time Temperature Precipitation Wind Pressure Humidity
    00:00 +12°C° 0.1 mm 1 mps 731 mmHg 93%
    01:00 +12°C° 0.1 mm 1 mps 731 mmHg 92%
    02:00 +11°C° 0 mm 1 mps 731 mmHg 93%
    03:00 +11°C° 0 mm 1 mps 731 mmHg 93%
    04:00 +10°C° 0 mm 1 mps 731 mmHg 93%
    05:00 +11°C° 0 mm 1 mps 731 mmHg 89%
    06:00 +12°C° 0 mm 1 mps 731 mmHg 84%
    07:00 +13°C° 0 mm 1 mps 731 mmHg 79%
    08:00 +14°C° 0 mm 1 mps 731 mmHg 74%
    09:00 +15°C° 0 mm 2 mps 731 mmHg 68%
    10:00 +16°C° 0 mm 2 mps 731 mmHg 63%
    11:00 +16°C° 0.4 mm 3 mps 731 mmHg 63%
    12:00 +17°C° 0.4 mm 3 mps 731 mmHg 63%
    13:00 +17°C° 0.4 mm 4 mps 731 mmHg 62%
    14:00 +17°C° 0.5 mm 3 mps 731 mmHg 66%
    15:00 +16°C° 0.5 mm 3 mps 730 mmHg 70%
    16:00 +14°C° 0.5 mm 3 mps 730 mmHg 73%
    17:00 +14°C° 0.1 mm 2 mps 731 mmHg 79%
    18:00 +13°C° 0.1 mm 1 mps 731 mmHg 84%
    19:00 +12°C° 0.1 mm 1 mps 731 mmHg 90%
    20:00 +11°C° 0 mm 1 mps 731 mmHg 90%
    21:00 +11°C° 0 mm 1 mps 731 mmHg 91%
    22:00 +9°C° 0 mm 0 mps 731 mmHg 92%
    23:00 +9°C° 0 mm 0 mps 731 mmHg 92%
    Show more